DAL922 KBOS-KCLT

Flight info

Callsign DAL922
Flight time 1h 55m
Altitude 38000
Route PATSS7 PATSS NELIE Q75 GVE AIROW CHSLY6
Aircraft B738/M-VGDW/C

Departure

Time 2026-05-05 01:20
Airport Boston Logan International Airport (KBOS)

Arrival

Time 2026-05-05 03:15
Airport Charlotte Douglas International Airport (KCLT)
Time Latitude Longitude Altitude Speed Heading
2026-05-05 00:50 42.36026 -71.01905 18 ft 0 kts 60°
2026-05-05 01:03 42.36025 -71.01907 18 ft 1 kts 60°
2026-05-05 01:03 42.36018 -71.01924 18 ft 2 kts 60°
2026-05-05 01:04 42.36010 -71.01942 18 ft 2 kts 60°
2026-05-05 01:04 42.35996 -71.01977 18 ft 2 kts 77°
2026-05-05 01:04 42.35995 -71.01998 18 ft 2 kts 97°
2026-05-05 01:05 42.35997 -71.02012 18 ft 0 kts 111°
2026-05-05 01:05 42.36000 -71.02021 18 ft 0 kts 114°
2026-05-05 01:09 42.35994 -71.02003 18 ft 4 kts 114°
2026-05-05 01:09 42.35977 -71.01955 18 ft 6 kts 118°
2026-05-05 01:09 42.35957 -71.01907 18 ft 6 kts 121°
2026-05-05 01:10 42.35931 -71.01845 18 ft 7 kts 116°
2026-05-05 01:10 42.35914 -71.01770 18 ft 8 kts 102°
2026-05-05 01:10 42.35900 -71.01683 18 ft 9 kts 101°
2026-05-05 01:10 42.35889 -71.01594 20 ft 9 kts 90°
2026-05-05 01:11 42.35947 -71.01520 19 ft 15 kts 19°
2026-05-05 01:11 42.36081 -71.01455 18 ft 21 kts 19°
2026-05-05 01:11 42.36209 -71.01392 18 ft 17 kts 21°
2026-05-05 01:11 42.36318 -71.01340 18 ft 16 kts 19°
2026-05-05 01:12 42.36422 -71.01289 18 ft 15 kts 19°
2026-05-05 01:12 42.36524 -71.01241 18 ft 15 kts 19°
2026-05-05 01:12 42.36632 -71.01188 15 ft 17 kts 20°
2026-05-05 01:12 42.36742 -71.01139 15 ft 16 kts
2026-05-05 01:13 42.36829 -71.01195 15 ft 11 kts 316°
2026-05-05 01:13 42.36897 -71.01208 15 ft 12 kts 35°
2026-05-05 01:13 42.36991 -71.01106 15 ft 20 kts 30°
2026-05-05 01:13 42.37118 -71.01023 12 ft 18 kts 26°
2026-05-05 01:14 42.37227 -71.00951 11 ft 16 kts 26°
2026-05-05 01:14 42.37335 -71.00888 11 ft 17 kts 19°
2026-05-05 01:14 42.37457 -71.00829 11 ft 19 kts 20°
2026-05-05 01:14 42.37592 -71.00763 11 ft 21 kts 20°
2026-05-05 01:15 42.37719 -71.00701 11 ft 14 kts 20°
2026-05-05 01:15 42.37772 -71.00676 11 ft 1 kts 20°
2026-05-05 01:15 42.37777 -71.00673 11 ft 1 kts 20°
2026-05-05 01:15 42.37790 -71.00667 11 ft 1 kts 20°
2026-05-05 01:16 42.37805 -71.00658 11 ft 4 kts 22°
2026-05-05 01:16 42.37831 -71.00631 11 ft 3 kts 54°
2026-05-05 01:16 42.37838 -71.00600 11 ft 4 kts 89°
2026-05-05 01:16 42.37837 -71.00582 11 ft 0 kts 102°
2026-05-05 01:17 42.37835 -71.00575 11 ft 4 kts 102°
2026-05-05 01:17 42.37821 -71.00517 11 ft 6 kts 119°
2026-05-05 01:18 42.37775 -71.00485 11 ft 10 kts 181°
2026-05-05 01:18 42.37721 -71.00504 11 ft 0 kts 200°
2026-05-05 01:19 42.37611 -71.00558 12 ft 50 kts 200°
2026-05-05 01:19 42.37044 -71.00830 14 ft 118 kts 200°
2026-05-05 01:20 42.36103 -71.01280 148 ft 162 kts 201°
2026-05-05 01:20 42.35010 -71.01695 806 ft 171 kts 186°
2026-05-05 01:20 42.33775 -71.01414 1422 ft 194 kts 163°
2026-05-05 01:20 42.32663 -71.00349 2300 ft 202 kts 136°
2026-05-05 01:21 42.31965 -70.98749 3143 ft 216 kts 123°
2026-05-05 01:21 42.31386 -70.96658 3516 ft 258 kts 104°
2026-05-05 01:21 42.31392 -70.94199 3961 ft 269 kts 84°
2026-05-05 01:21 42.31727 -70.91698 4401 ft 271 kts 82°
2026-05-05 01:22 42.32079 -70.89209 4844 ft 270 kts 82°
2026-05-05 01:22 42.32435 -70.86700 5202 ft 275 kts 83°
2026-05-05 01:22 42.32789 -70.84170 5160 ft 276 kts 82°
2026-05-05 01:22 42.33039 -70.81615 5141 ft 269 kts 92°
2026-05-05 01:23 42.32842 -70.79185 5116 ft 260 kts 112°
2026-05-05 01:23 42.32079 -70.76994 5116 ft 254 kts 122°
2026-05-05 01:23 42.31244 -70.74916 5528 ft 254 kts 124°
2026-05-05 01:23 42.30089 -70.73169 6020 ft 254 kts 148°
2026-05-05 01:24 42.28487 -70.72123 6582 ft 260 kts 165°
2026-05-05 01:24 42.26707 -70.71776 7098 ft 260 kts 184°
2026-05-05 01:24 42.24935 -70.72102 7653 ft 261 kts 189°
2026-05-05 01:24 42.23144 -70.72492 8199 ft 259 kts 189°
2026-05-05 01:25 42.21394 -70.73025 8709 ft 263 kts 201°
2026-05-05 01:25 42.19865 -70.74357 9218 ft 266 kts 222°
2026-05-05 01:25 42.18700 -70.76303 9733 ft 272 kts 237°
2026-05-05 01:25 42.18052 -70.78702 10228 ft 280 kts 255°
2026-05-05 01:26 42.17705 -70.81316 10807 ft 293 kts 255°
2026-05-05 01:26 42.17330 -70.84096 11439 ft 309 kts 255°
2026-05-05 01:26 42.16932 -70.87022 12077 ft 323 kts 255°
2026-05-05 01:26 42.16528 -70.90002 12660 ft 327 kts 255°
2026-05-05 01:27 42.16118 -70.93012 13203 ft 327 kts 255°
2026-05-05 01:27 42.15800 -70.96052 13693 ft 330 kts 258°
2026-05-05 01:27 42.15525 -70.99120 14193 ft 331 kts 258°
2026-05-05 01:27 42.15251 -71.02206 14690 ft 332 kts 257°
2026-05-05 01:28 42.14979 -71.05258 15180 ft 333 kts 257°
2026-05-05 01:28 42.14697 -71.08403 15696 ft 336 kts 257°
2026-05-05 01:28 42.14416 -71.11530 16236 ft 341 kts 257°
2026-05-05 01:28 42.14125 -71.14742 16826 ft 352 kts 257°
2026-05-05 01:29 42.13829 -71.18030 17426 ft 361 kts 257°
2026-05-05 01:29 42.13525 -71.21390 18016 ft 370 kts 257°
2026-05-05 01:29 42.13208 -71.24873 18616 ft 376 kts 257°
2026-05-05 01:29 42.12893 -71.28344 19176 ft 379 kts 257°
2026-05-05 01:30 42.12568 -71.31891 19724 ft 381 kts 257°
2026-05-05 01:30 42.12219 -71.35410 20249 ft 381 kts 253°
2026-05-05 01:30 42.11354 -71.38727 20702 ft 372 kts 237°
2026-05-05 01:30 42.10090 -71.41753 21233 ft 375 kts 238°
2026-05-05 01:31 42.08931 -71.44899 21737 ft 378 kts 239°
2026-05-05 01:31 42.07783 -71.48050 22287 ft 380 kts 239°
2026-05-05 01:31 42.06613 -71.51261 22846 ft 383 kts 238°
2026-05-05 01:31 42.05439 -71.54481 23395 ft 386 kts 238°
2026-05-05 01:32 42.04248 -71.57740 23941 ft 390 kts 238°
2026-05-05 01:32 42.03051 -71.61011 24483 ft 393 kts 238°
2026-05-05 01:32 42.01844 -71.64311 25022 ft 396 kts 238°
2026-05-05 01:32 42.00623 -71.67638 25572 ft 398 kts 238°
2026-05-05 01:33 41.99404 -71.70960 26115 ft 401 kts 237°
2026-05-05 01:33 41.98170 -71.74319 26652 ft 403 kts 237°
2026-05-05 01:33 41.96923 -71.77710 27184 ft 405 kts 237°
2026-05-05 01:33 41.95688 -71.81063 27701 ft 407 kts 237°
2026-05-05 01:34 41.94431 -71.84471 28203 ft 409 kts 237°
2026-05-05 01:34 41.93167 -71.87897 28691 ft 411 kts 237°
2026-05-05 01:34 41.91891 -71.91348 29179 ft 413 kts 237°
2026-05-05 01:34 41.90630 -71.94756 29657 ft 414 kts 237°
2026-05-05 01:35 41.89342 -71.98232 30154 ft 415 kts 237°
2026-05-05 01:35 41.88055 -72.01701 30668 ft 416 kts 237°
2026-05-05 01:35 41.86782 -72.05133 31167 ft 416 kts 237°
2026-05-05 01:35 41.85490 -72.08602 31674 ft 416 kts 237°
2026-05-05 01:36 41.84208 -72.12049 32177 ft 416 kts 237°
2026-05-05 01:36 41.82919 -72.15507 32602 ft 417 kts 237°
2026-05-05 01:36 41.81610 -72.19012 32985 ft 419 kts 237°
2026-05-05 01:36 41.80317 -72.22472 33367 ft 420 kts 237°
2026-05-05 01:37 41.79010 -72.25967 33742 ft 420 kts 237°
2026-05-05 01:37 41.77705 -72.29451 34117 ft 418 kts 236°
2026-05-05 01:37 41.76409 -72.32908 34489 ft 417 kts 236°
2026-05-05 01:37 41.75111 -72.36363 34864 ft 416 kts 236°
2026-05-05 01:38 41.73815 -72.39808 35238 ft 415 kts 236°
2026-05-05 01:38 41.72518 -72.43253 35611 ft 415 kts 236°
2026-05-05 01:38 41.71227 -72.46679 35984 ft 414 kts 236°
2026-05-05 01:38 41.69938 -72.50100 36354 ft 413 kts 236°
2026-05-05 01:39 41.68645 -72.53521 36725 ft 412 kts 236°
2026-05-05 01:39 41.67363 -72.56908 37091 ft 411 kts 236°
2026-05-05 01:39 41.66077 -72.60306 37459 ft 410 kts 236°
2026-05-05 01:39 41.64787 -72.63712 37822 ft 409 kts 236°
2026-05-05 01:40 41.62191 -72.70541 37942 ft 415 kts 236°
2026-05-05 01:40 41.59601 -72.77353 37937 ft 412 kts 236°
2026-05-05 01:41 41.56999 -72.84168 37938 ft 412 kts 236°
2026-05-05 01:41 41.54405 -72.90953 37936 ft 412 kts 236°
2026-05-05 01:42 41.51795 -72.97759 37937 ft 412 kts 236°
2026-05-05 01:42 41.49193 -73.04535 37935 ft 407 kts 236°
2026-05-05 01:43 41.46639 -73.11169 37934 ft 401 kts 236°
2026-05-05 01:43 41.44111 -73.17718 37933 ft 396 kts 236°
2026-05-05 01:44 41.41603 -73.24200 37929 ft 394 kts 236°
2026-05-05 01:44 41.39089 -73.30684 37925 ft 395 kts 236°
2026-05-05 01:45 41.36581 -73.37137 37916 ft 394 kts 236°
2026-05-05 01:45 41.34070 -73.43584 37910 ft 395 kts 236°
2026-05-05 01:46 41.31534 -73.50082 37909 ft 395 kts 236°
2026-05-05 01:46 41.29003 -73.56516 37904 ft 392 kts 233°
2026-05-05 01:47 41.25811 -73.62281 37902 ft 388 kts 227°
2026-05-05 01:47 41.22443 -73.67884 37912 ft 387 kts 226°
2026-05-05 01:48 41.19093 -73.73399 37911 ft 387 kts 226°
2026-05-05 01:48 41.15716 -73.78941 37907 ft 387 kts 226°
2026-05-05 01:49 41.12386 -73.84525 37908 ft 388 kts 226°
2026-05-05 01:49 41.09035 -73.90151 37907 ft 388 kts 226°
2026-05-05 01:50 41.05703 -73.95742 37905 ft 390 kts 226°
2026-05-05 01:50 41.02340 -74.01371 37903 ft 391 kts 227°
2026-05-05 01:51 40.98976 -74.06995 37899 ft 392 kts 227°
2026-05-05 01:51 40.95570 -74.12678 37899 ft 394 kts 227°
2026-05-05 01:52 40.92173 -74.18333 37899 ft 394 kts 227°
2026-05-05 01:52 40.88790 -74.23959 37917 ft 393 kts 227°
2026-05-05 01:53 40.85377 -74.29622 37920 ft 394 kts 227°
2026-05-05 01:53 40.81971 -74.35261 37920 ft 393 kts 227°
2026-05-05 01:54 40.78585 -74.40861 37921 ft 393 kts 227°
2026-05-05 01:54 40.75171 -74.46492 37919 ft 393 kts 227°
2026-05-05 01:55 40.71777 -74.52085 37915 ft 394 kts 227°
2026-05-05 01:55 40.68361 -74.57701 37909 ft 393 kts 227°
2026-05-05 01:56 40.64944 -74.63310 37903 ft 393 kts 227°
2026-05-05 01:56 40.61523 -74.68913 37903 ft 393 kts 226°
2026-05-05 01:57 40.58097 -74.74453 37897 ft 391 kts 224°
2026-05-05 01:57 40.54398 -74.79710 37905 ft 391 kts 223°
2026-05-05 01:58 40.50704 -74.84938 37912 ft 391 kts 223°
2026-05-05 01:58 40.47012 -74.90151 37918 ft 391 kts 223°
2026-05-05 01:59 40.43335 -74.95335 37914 ft 388 kts 223°
2026-05-05 01:59 40.39687 -75.00474 37913 ft 386 kts 223°
2026-05-05 02:00 40.36021 -75.05621 37908 ft 384 kts 223°
2026-05-05 02:00 40.32399 -75.10709 37905 ft 382 kts 223°
2026-05-05 02:01 40.28782 -75.15771 37909 ft 381 kts 223°
2026-05-05 02:01 40.25186 -75.20797 37918 ft 381 kts 223°
2026-05-05 02:02 40.21563 -75.25860 37933 ft 383 kts 223°
2026-05-05 02:02 40.17928 -75.30920 37929 ft 382 kts 223°
2026-05-05 02:03 40.14294 -75.35976 37928 ft 382 kts 223°
2026-05-05 02:03 40.10667 -75.41014 37926 ft 382 kts 223°
2026-05-05 02:04 40.07040 -75.46045 37926 ft 382 kts 223°
2026-05-05 02:04 40.03397 -75.51089 37928 ft 382 kts 223°
2026-05-05 02:05 39.99773 -75.56097 37929 ft 382 kts 223°
2026-05-05 02:05 39.96136 -75.61116 37930 ft 382 kts 223°
2026-05-05 02:06 39.92483 -75.66146 37929 ft 382 kts 223°
2026-05-05 02:06 39.89062 -75.71485 37940 ft 384 kts 226°
2026-05-05 02:07 39.85699 -75.76858 37941 ft 385 kts 226°
2026-05-05 02:07 39.82339 -75.82223 37936 ft 383 kts 226°
2026-05-05 02:08 39.78989 -75.87567 37936 ft 384 kts 226°
2026-05-05 02:08 39.75602 -75.92956 37935 ft 384 kts 226°
2026-05-05 02:09 39.72239 -75.98299 37934 ft 384 kts 226°
2026-05-05 02:09 39.68878 -76.03632 37930 ft 383 kts 226°
2026-05-05 02:10 39.65500 -76.08980 37931 ft 384 kts 226°
2026-05-05 02:10 39.62118 -76.14332 37937 ft 384 kts 226°
2026-05-05 02:11 39.58731 -76.19618 37940 ft 383 kts 225°
2026-05-05 02:11 39.55298 -76.24909 37942 ft 384 kts 225°
2026-05-05 02:12 39.50164 -76.32797 37943 ft 383 kts 226°
2026-05-05 02:13 39.46743 -76.38040 37942 ft 382 kts 225°
2026-05-05 02:13 39.43057 -76.42942 37937 ft 382 kts 222°
2026-05-05 02:14 39.39340 -76.47813 37940 ft 381 kts 222°
2026-05-05 02:14 39.35620 -76.52675 37938 ft 381 kts 222°
2026-05-05 02:15 39.31901 -76.57532 37934 ft 382 kts 222°
2026-05-05 02:15 39.28193 -76.62363 37928 ft 381 kts 222°
2026-05-05 02:16 39.24464 -76.67213 37936 ft 381 kts 221°
2026-05-05 02:16 39.20742 -76.72045 37939 ft 381 kts 221°
2026-05-05 02:17 39.17016 -76.76879 37943 ft 381 kts 221°
2026-05-05 02:17 39.13285 -76.81710 37948 ft 382 kts 221°
2026-05-05 02:18 39.09546 -76.86540 37944 ft 380 kts 221°
2026-05-05 02:18 39.05842 -76.91324 37938 ft 380 kts 221°
2026-05-05 02:19 39.02121 -76.96114 37932 ft 380 kts 221°
2026-05-05 02:19 38.98380 -77.00928 37925 ft 381 kts 222°
2026-05-05 02:20 38.94633 -77.05752 37920 ft 382 kts 222°
2026-05-05 02:20 38.90888 -77.10564 37916 ft 383 kts 223°
2026-05-05 02:21 38.87126 -77.15390 37922 ft 386 kts 223°
2026-05-05 02:21 38.83333 -77.20258 37919 ft 386 kts 223°
2026-05-05 02:22 38.79552 -77.25095 37916 ft 384 kts 223°
2026-05-05 02:22 38.75788 -77.29896 37914 ft 384 kts 223°
2026-05-05 02:23 38.71962 -77.34632 37919 ft 384 kts 221°
2026-05-05 02:23 38.67991 -77.39239 37925 ft 384 kts 221°
2026-05-05 02:24 38.64042 -77.43803 37928 ft 385 kts 221°
2026-05-05 02:24 38.60076 -77.48380 37932 ft 384 kts 221°
2026-05-05 02:25 38.56124 -77.52935 37942 ft 384 kts 221°
2026-05-05 02:25 38.52174 -77.57474 37941 ft 384 kts 221°
2026-05-05 02:26 38.48219 -77.62015 37942 ft 384 kts 221°
2026-05-05 02:26 38.44230 -77.66590 37955 ft 384 kts 220°
2026-05-05 02:27 38.40279 -77.71114 37960 ft 384 kts 220°
2026-05-05 02:27 38.36308 -77.75653 37958 ft 384 kts 220°
2026-05-05 02:28 38.32356 -77.80162 37963 ft 384 kts 220°
2026-05-05 02:28 38.28368 -77.84707 37962 ft 385 kts 220°
2026-05-05 02:29 38.24394 -77.89230 37956 ft 384 kts 220°
2026-05-05 02:29 38.20427 -77.93739 37961 ft 384 kts 220°
2026-05-05 02:30 38.16460 -77.98237 37967 ft 384 kts 220°
2026-05-05 02:30 38.12467 -78.02759 37968 ft 384 kts 220°
2026-05-05 02:31 38.08505 -78.07240 37970 ft 384 kts 220°
2026-05-05 02:31 38.04523 -78.11735 37967 ft 384 kts 220°
2026-05-05 02:32 38.00647 -78.16418 37969 ft 385 kts 225°
2026-05-05 02:32 37.97059 -78.21456 37958 ft 386 kts 226°
2026-05-05 02:33 37.93503 -78.26508 37951 ft 386 kts 226°
2026-05-05 02:33 37.89956 -78.31548 37954 ft 386 kts 226°
2026-05-05 02:34 37.86373 -78.36636 37971 ft 386 kts 226°
2026-05-05 02:34 37.82820 -78.41670 37973 ft 386 kts 226°
2026-05-05 02:35 37.79261 -78.46712 37970 ft 386 kts 226°
2026-05-05 02:35 37.75688 -78.51756 37971 ft 386 kts 226°
2026-05-05 02:36 37.72131 -78.56779 37971 ft 386 kts 226°
2026-05-05 02:36 37.68554 -78.61816 37973 ft 385 kts 226°
2026-05-05 02:37 37.64988 -78.66830 37984 ft 386 kts 225°
2026-05-05 02:37 37.61395 -78.71881 37984 ft 386 kts 225°
2026-05-05 02:38 37.57820 -78.76893 37987 ft 386 kts 225°
2026-05-05 02:38 37.54267 -78.81866 37992 ft 385 kts 225°
2026-05-05 02:39 37.50672 -78.86890 37994 ft 385 kts 225°
2026-05-05 02:39 37.47100 -78.91878 37994 ft 386 kts 225°
2026-05-05 02:40 37.43514 -78.96870 37999 ft 385 kts 225°
2026-05-05 02:40 37.39930 -79.01857 38000 ft 383 kts 226°
2026-05-05 02:41 37.36394 -79.06770 37989 ft 380 kts 226°
2026-05-05 02:41 37.32874 -79.11658 38001 ft 376 kts 226°
2026-05-05 02:42 37.29361 -79.16513 37992 ft 374 kts 225°
2026-05-05 02:42 37.25872 -79.21340 37998 ft 373 kts 225°
2026-05-05 02:43 37.21871 -79.25436 37992 ft 375 kts 218°
2026-05-05 02:43 37.17691 -79.29289 37983 ft 374 kts 217°
2026-05-05 02:44 37.13478 -79.33079 37981 ft 375 kts 217°
2026-05-05 02:44 37.09327 -79.36832 37941 ft 356 kts 218°
2026-05-05 02:44 37.07355 -79.38602 37912 ft 342 kts 218°
2026-05-05 02:45 37.05467 -79.40299 37808 ft 337 kts 217°
2026-05-05 02:45 37.01561 -79.43781 37466 ft 358 kts 217°
2026-05-05 02:45 36.99501 -79.45531 36983 ft 361 kts 217°
2026-05-05 02:46 36.97432 -79.47278 36487 ft 361 kts 218°
2026-05-05 02:46 36.95351 -79.49042 35985 ft 360 kts 218°
2026-05-05 02:46 36.93295 -79.50784 35493 ft 358 kts 218°
2026-05-05 02:46 36.91244 -79.52515 34999 ft 357 kts 217°
2026-05-05 02:47 36.89210 -79.54231 34515 ft 357 kts 217°
2026-05-05 02:47 36.87159 -79.55961 34051 ft 358 kts 217°
2026-05-05 02:47 36.85073 -79.57716 33576 ft 361 kts 217°
2026-05-05 02:47 36.83014 -79.59447 33110 ft 364 kts 217°
2026-05-05 02:48 36.80903 -79.61227 32642 ft 367 kts 217°
2026-05-05 02:48 36.78798 -79.62991 32208 ft 368 kts 217°
2026-05-05 02:48 36.76674 -79.64773 31614 ft 374 kts 217°
2026-05-05 02:48 36.74439 -79.66647 30152 ft 398 kts 217°
2026-05-05 02:49 36.72187 -79.68529 29896 ft 384 kts 217°
2026-05-05 02:49 36.70011 -79.70350 29508 ft 375 kts 217°
2026-05-05 02:49 36.67898 -79.72118 29152 ft 366 kts 217°
2026-05-05 02:49 36.65795 -79.73875 28775 ft 362 kts 217°
2026-05-05 02:50 36.63697 -79.75628 28405 ft 363 kts 217°
2026-05-05 02:50 36.61618 -79.77364 28043 ft 365 kts 217°
2026-05-05 02:50 36.59501 -79.79131 27678 ft 365 kts 217°
2026-05-05 02:50 36.57424 -79.80859 27307 ft 364 kts 217°
2026-05-05 02:51 36.55319 -79.82613 27035 ft 359 kts 217°
2026-05-05 02:51 36.53270 -79.84319 27047 ft 356 kts 217°
2026-05-05 02:51 36.51192 -79.86047 27035 ft 359 kts 217°
2026-05-05 02:51 36.49135 -79.87758 26977 ft 363 kts 217°
2026-05-05 02:52 36.47012 -79.89522 26543 ft 366 kts 217°
2026-05-05 02:52 36.44929 -79.91251 26171 ft 361 kts 217°
2026-05-05 02:52 36.42864 -79.92963 25733 ft 358 kts 217°
2026-05-05 02:52 36.40809 -79.94663 25301 ft 354 kts 217°
2026-05-05 02:53 36.38779 -79.96347 24873 ft 352 kts 217°
2026-05-05 02:53 36.36739 -79.98037 24444 ft 351 kts 217°
2026-05-05 02:53 36.34742 -79.99690 23986 ft 350 kts 217°
2026-05-05 02:53 36.32722 -80.01357 23531 ft 349 kts 217°
2026-05-05 02:54 36.30705 -80.03023 23098 ft 346 kts 217°
2026-05-05 02:54 36.28708 -80.04671 22667 ft 345 kts 217°
2026-05-05 02:54 36.26739 -80.06295 22243 ft 344 kts 217°
2026-05-05 02:54 36.24757 -80.07928 21807 ft 340 kts 217°
2026-05-05 02:55 36.22813 -80.09528 21327 ft 336 kts 217°
2026-05-05 02:55 36.20888 -80.11114 20840 ft 331 kts 217°
2026-05-05 02:55 36.18977 -80.12686 20343 ft 328 kts 217°
2026-05-05 02:55 36.17097 -80.14233 19810 ft 326 kts 217°
2026-05-05 02:56 36.15224 -80.15771 19283 ft 324 kts 217°
2026-05-05 02:56 36.13362 -80.17301 18764 ft 322 kts 217°
2026-05-05 02:56 36.11487 -80.18840 18237 ft 320 kts 217°
2026-05-05 02:56 36.09652 -80.20346 17719 ft 318 kts 217°
2026-05-05 02:57 36.07827 -80.21842 17206 ft 317 kts 217°
2026-05-05 02:57 36.06004 -80.23336 16692 ft 315 kts 217°
2026-05-05 02:57 36.04194 -80.24818 16246 ft 312 kts 217°
2026-05-05 02:57 36.02407 -80.26279 16013 ft 304 kts 217°
2026-05-05 02:58 36.00661 -80.27708 16042 ft 304 kts 217°
2026-05-05 02:58 35.98875 -80.29170 16036 ft 310 kts 217°
2026-05-05 02:58 35.97078 -80.30640 16037 ft 312 kts 217°
2026-05-05 02:58 35.95276 -80.32111 16004 ft 313 kts 217°
2026-05-05 02:59 35.93461 -80.33594 15683 ft 314 kts 217°
2026-05-05 02:59 35.91646 -80.35074 15401 ft 311 kts 217°
2026-05-05 02:59 35.89856 -80.36534 15112 ft 308 kts 217°
2026-05-05 02:59 35.88079 -80.37982 14825 ft 303 kts 217°
2026-05-05 03:00 35.86342 -80.39394 14523 ft 296 kts 217°
2026-05-05 03:00 35.84644 -80.40775 14192 ft 291 kts 217°
2026-05-05 03:00 35.82997 -80.42164 13782 ft 287 kts 221°
2026-05-05 03:00 35.81430 -80.43674 13352 ft 285 kts 221°
2026-05-05 03:01 35.79890 -80.45155 12984 ft 281 kts 221°
2026-05-05 03:01 35.78352 -80.46637 12612 ft 277 kts 221°
2026-05-05 03:01 35.76852 -80.48082 12239 ft 275 kts 221°
2026-05-05 03:01 35.75324 -80.49450 11852 ft 276 kts 213°
2026-05-05 03:02 35.73550 -80.50393 11421 ft 279 kts 204°
2026-05-05 03:02 35.71714 -80.51185 11021 ft 278 kts 203°
2026-05-05 03:02 35.69890 -80.51929 10615 ft 275 kts 202°
2026-05-05 03:02 35.68101 -80.52638 10151 ft 267 kts 201°
2026-05-05 03:03 35.66369 -80.53316 9694 ft 261 kts 201°
2026-05-05 03:03 35.64659 -80.53979 9236 ft 255 kts 200°
2026-05-05 03:03 35.63007 -80.54618 8791 ft 250 kts 200°
2026-05-05 03:03 35.61366 -80.55251 8341 ft 245 kts 200°
2026-05-05 03:04 35.59840 -80.56110 8048 ft 233 kts 216°
2026-05-05 03:04 35.58691 -80.57474 8098 ft 233 kts 233°
2026-05-05 03:04 35.57814 -80.59202 7773 ft 241 kts 238°
2026-05-05 03:04 35.57116 -80.61033 7376 ft 237 kts 252°
2026-05-05 03:05 35.56903 -80.63007 6991 ft 235 kts 266°
2026-05-05 03:05 35.56881 -80.65009 6611 ft 231 kts 265°
2026-05-05 03:05 35.56857 -80.66965 6218 ft 229 kts 265°
2026-05-05 03:05 35.56835 -80.68893 6090 ft 219 kts 265°
2026-05-05 03:06 35.56813 -80.70745 6091 ft 217 kts 265°
2026-05-05 03:06 35.56790 -80.72611 6097 ft 221 kts 265°
2026-05-05 03:06 35.56767 -80.74496 6094 ft 223 kts 265°
2026-05-05 03:06 35.56743 -80.76405 5956 ft 226 kts 265°
2026-05-05 03:07 35.56617 -80.78293 5785 ft 218 kts 258°
2026-05-05 03:07 35.56408 -80.80136 5561 ft 219 kts 259°
2026-05-05 03:07 35.56197 -80.81991 5338 ft 220 kts 259°
2026-05-05 03:07 35.55986 -80.83844 5130 ft 219 kts 259°
2026-05-05 03:08 35.55575 -80.85606 5097 ft 214 kts 241°
2026-05-05 03:08 35.54705 -80.87090 4951 ft 217 kts 223°
2026-05-05 03:08 35.53504 -80.88184 4706 ft 215 kts 212°
2026-05-05 03:08 35.52238 -80.89162 4449 ft 214 kts 207°
2026-05-05 03:09 35.50888 -80.89892 4200 ft 212 kts 206°
2026-05-05 03:09 35.49566 -80.90730 3951 ft 212 kts 207°
2026-05-05 03:09 35.48288 -80.91538 3684 ft 205 kts 207°
2026-05-05 03:09 35.47051 -80.92320 3410 ft 196 kts 207°
2026-05-05 03:10 35.45884 -80.93056 3222 ft 184 kts 207°
2026-05-05 03:10 35.44765 -80.93760 3048 ft 175 kts 207°
2026-05-05 03:10 35.43699 -80.94428 3068 ft 175 kts 207°
2026-05-05 03:10 35.42587 -80.95106 3019 ft 178 kts 200°
2026-05-05 03:11 35.41358 -80.95250 3024 ft 180 kts 176°
2026-05-05 03:11 35.40099 -80.95133 3014 ft 182 kts 178°
2026-05-05 03:11 35.38849 -80.95024 3038 ft 179 kts 178°
2026-05-05 03:11 35.37602 -80.94916 3031 ft 181 kts 178°
2026-05-05 03:12 35.36355 -80.94808 3021 ft 181 kts 178°
2026-05-05 03:12 35.35107 -80.94701 3041 ft 180 kts 178°
2026-05-05 03:12 35.33840 -80.94592 2977 ft 183 kts 178°
2026-05-05 03:12 35.32571 -80.94484 2740 ft 182 kts 178°
2026-05-05 03:13 35.31355 -80.94379 2495 ft 171 kts 178°
2026-05-05 03:13 35.30187 -80.94278 2270 ft 168 kts 178°
2026-05-05 03:13 35.29015 -80.94178 2058 ft 168 kts 178°
2026-05-05 03:13 35.27896 -80.94081 1838 ft 158 kts 178°
2026-05-05 03:14 35.26818 -80.93989 1637 ft 155 kts 178°
2026-05-05 03:14 35.25725 -80.93895 1434 ft 158 kts 177°
2026-05-05 03:14 35.24633 -80.93801 1213 ft 154 kts 177°
2026-05-05 03:14 35.23608 -80.93713 1008 ft 147 kts 177°
2026-05-05 03:15 35.22613 -80.93627 823 ft 138 kts 177°
2026-05-05 03:15 35.21739 -80.93551 757 ft 86 kts 176°
2026-05-05 03:15 35.21397 -80.93522 757 ft 39 kts 175°
2026-05-05 03:15 35.21246 -80.93518 757 ft 10 kts 207°
2026-05-05 03:16 35.21221 -80.93568 757 ft 5 kts 243°
2026-05-05 03:16 35.21218 -80.93584 757 ft 0 kts 268°
2026-05-05 03:16 35.21218 -80.93591 757 ft 1 kts 270°
2026-05-05 03:16 35.21223 -80.93614 757 ft 3 kts 299°
2026-05-05 03:17 35.21259 -80.93641 757 ft 10 kts 352°
2026-05-05 03:17 35.21353 -80.93650 757 ft 15 kts 356°
2026-05-05 03:17 35.21437 -80.93693 757 ft 12 kts 317°
2026-05-05 03:17 35.21493 -80.93753 757 ft 9 kts 319°
2026-05-05 03:18 35.21545 -80.93809 757 ft 10 kts 319°
2026-05-05 03:18 35.21608 -80.93875 757 ft 12 kts 319°
2026-05-05 03:18 35.21666 -80.93937 757 ft 10 kts 319°
2026-05-05 03:18 35.21715 -80.93990 757 ft 8 kts 319°
2026-05-05 03:19 35.21677 -80.94126 757 ft 14 kts 228°
2026-05-05 03:19 35.21637 -80.94221 757 ft 10 kts 273°
2026-05-05 03:19 35.21645 -80.94306 757 ft 10 kts 277°
2026-05-05 03:20 35.21620 -80.94384 757 ft 10 kts 234°
2026-05-05 03:20 35.21584 -80.94478 757 ft 14 kts 257°
2026-05-05 03:20 35.21575 -80.94608 757 ft 15 kts 266°
2026-05-05 03:20 35.21570 -80.94741 757 ft 15 kts 267°
2026-05-05 03:21 35.21560 -80.94868 757 ft 14 kts 279°
2026-05-05 03:21 35.21636 -80.94926 757 ft 14 kts 354°
2026-05-05 03:21 35.21730 -80.94936 757 ft 13 kts 357°
2026-05-05 03:21 35.21821 -80.94946 757 ft 12 kts 353°
2026-05-05 03:22 35.21909 -80.94955 757 ft 12 kts 355°
2026-05-05 03:22 35.21993 -80.94962 757 ft 11 kts 356°
2026-05-05 03:22 35.22070 -80.94966 757 ft 9 kts
2026-05-05 03:22 35.22125 -80.94939 757 ft 9 kts 56°
2026-05-05 03:23 35.22138 -80.94857 757 ft 9 kts 79°
2026-05-05 03:23 35.22162 -80.94801 757 ft 6 kts 35°
2026-05-05 03:23 35.22208 -80.94795 757 ft 5 kts 356°
2026-05-05 03:23 35.22216 -80.94795 757 ft 0 kts 356°